Location: ????? ??????
(37.8317°N, 23.8750°E)
Time: 13:44:16
(UTC+00:00)

CZ-4 R/B - Pass Details

Date: 20 January 2021
Orbit: 531 x 599 km, 97.7° (Epoch: 03 March)

Event Time Altitude Azimuth Distance (km) Brightness Sun altitude
Rises 17:47:42 0° 194° (SSW) 2,809 5.2 -26.0°
Reaches altitude 10° 17:50:09 10° 207° (SSW) 1,904 4.4 -26.5°
Maximum altitude 17:53:36 26° 264° (W) 1,171 3.6 -27.2°
Drops below altitude 10° 17:57:02 10° 321° (NW) 1,885 4.4 -27.9°
Sets 17:59:28 0° 334° (NNW) 2,775 5.2 -28.3°
